Spokane, WA
on Tuesday, February 26, 2013

Tuesday
Previous Day Next Day
Daily Summary
 ActualAverageRecord
Temperature
Mean Temperature °F 35°F  
Max Temperature 41°F 43°F 60°F (1932)
Min Temperature 25°F 27°F -23°F (1890)
Degree Days
Heating Degree Days 32 30  
Month to date heating degree days 814 836  
Since 1 July heating degree days 4482 4769  
Cooling Degree Days 0 0  
Month to date cooling degree days 0 0  
Year to date cooling degree days 0 0  
Moisture
Dew Point 24°F   
Average Humidity 70    
Maximum Humidity 92    
Minimum Humidity 48    
Precipitation
Precipitation 0.00 in 0.05 in 0.45 in (1974)
Month to date precipitation 0.59 1.23  
Year to date precipitation 2.22 3.02  
Snow
Snow 0.00 in 0.20 in 2.90 in (1955)
Month to date snowfall 4.4 6.4  
Since 1 July snowfall 42.6 39.9  
Snow Depth 0.00 in   
Wind
Wind Speed 8 mph   
Max Wind Speed 20 mph   
Max Gust Speed 24 mph   
Visibility 10 miles   
Events     

Key: T is trace of precipitation, MM is missing value
Source: NWS Daily Summary
Time(PST)TemperatureDew PointHumidity Pressure Visibility Wind DirectionWind SpeedGust SpeedPrecipitationEvents Conditions
12:53 AM 30.9°F 23.0°F 72% 30.14 in 10.0 miles SW 13.8 mph - N/A   Overcast
1:53 AM 28.9°F 23.0°F 78% 30.17 in 10.0 miles SSW 9.2 mph - N/A   Scattered Clouds
2:53 AM 28.0°F 23.0°F 81% 30.19 in 10.0 miles SSW 6.9 mph - N/A   Mostly Cloudy
3:53 AM 26.6°F 23.0°F 86% 30.15 in 10.0 miles South 6.9 mph - N/A   Mostly Cloudy
4:53 AM 27.0°F 23.0°F 85% 30.24 in 10.0 miles South 9.2 mph - N/A   Scattered Clouds
5:53 AM 27.0°F 23.0°F 85% 30.26 in 10.0 miles SSE 4.6 mph - N/A   Scattered Clouds
6:53 AM 25.0°F 23.0°F 92% 30.28 in 10.0 miles South 6.9 mph - N/A   Mostly Cloudy
7:14 AM 26.6°F 23.0°F 86% 30.22 in 10.0 miles South 9.2 mph - N/A   Mostly Cloudy
7:28 AM 26.6°F 24.8°F 93% 30.23 in 10.0 miles South 8.1 mph - N/A   Mostly Cloudy
7:53 AM 27.0°F 24.1°F 89% 30.30 in 10.0 miles South 5.8 mph - N/A   Mostly Cloudy
8:53 AM 28.9°F 24.1°F 82% 30.32 in 10.0 miles South 5.8 mph - N/A   Mostly Cloudy
9:30 AM 30.2°F 24.8°F 80% 30.26 in 10.0 miles South 6.9 mph - N/A   Mostly Cloudy
9:53 AM 32.0°F 24.1°F 73% 30.33 in 10.0 miles South 9.2 mph - N/A   Mostly Cloudy
10:53 AM 34.0°F 25.0°F 70% 30.33 in 10.0 miles SW 10.4 mph - N/A   Mostly Cloudy
11:53 AM 37.0°F 26.1°F 65% 30.32 in 10.0 miles SSW 13.8 mph - N/A   Mostly Cloudy
12:53 PM 39.0°F 25.0°F 57% 30.31 in 10.0 miles SSW 13.8 mph - N/A   Mostly Cloudy
1:53 PM 39.9°F 24.1°F 53% 30.30 in 10.0 miles SSW 10.4 mph - N/A   Mostly Cloudy
2:53 PM 39.9°F 23.0°F 51% 30.31 in 10.0 miles SSW 11.5 mph - N/A   Mostly Cloudy
3:53 PM 39.0°F 21.9°F 50% 30.31 in 10.0 miles SSW 9.2 mph - N/A   Mostly Cloudy
4:53 PM 37.9°F 23.0°F 55% 30.31 in 10.0 miles SSW 6.9 mph - N/A   Mostly Cloudy
5:53 PM 36.0°F 23.0°F 59% 30.30 in 10.0 miles SSE 3.5 mph - N/A   Mostly Cloudy
6:53 PM 35.1°F 23.0°F 61% 30.31 in 10.0 miles SSE 3.5 mph - N/A   Overcast
7:53 PM 35.1°F 24.1°F 64% 30.30 in 10.0 miles SSE 3.5 mph - N/A   Overcast
8:53 PM 33.1°F 26.1°F 75% 30.28 in 10.0 miles SE 6.9 mph - N/A   Overcast
9:53 PM 33.1°F 25.0°F 72% 30.27 in 10.0 miles SE 5.8 mph - N/A   Overcast
10:53 PM 33.1°F 25.0°F 72% 30.26 in 10.0 miles SE 6.9 mph - N/A   Mostly Cloudy
11:53 PM 33.1°F 25.0°F 72% 30.25 in 10.0 miles SE 8.1 mph - N/A   Overcast
Moon Phase
Feb. 26 Mar. 04 Mar. 11 Mar. 19 Mar. 27
Sunrise:06:35 AM (PST) Moon Rise:07:02 PM (PST)2/26
Sunset:05:30 PM (PST) Moon Set:06:33 AM (PST)2/26

Copyright © 2014 The Weather Underground, Inc.